Wetbulb
54.01 54.21 53.96 53.35 52.20 50.88 47.21 39.85 35.38 46.99 50.08 35.87 32.43 29.54 34.27 40.51 38.13 40.42 37.65 37.66 36.51 33.66 34.18 34.44 34.30 33.86 37.05 42.56 41.72 36.18 40.07 37.20 33.95 41.17 46.48 49.74 51.29 44.86 43.65 40.37 35.41 35.94 36.88 41.58
54.05 54.03 53.60 52.91 51.97 51.38 46.64 38.58 38.09 46.67 43.38 30.08 31.05 35.12 38.79 39.26 37.02 36.39 37.34 35.50 36.60 35.11 33.27 32.04 35.42 36.34 41.57 42.89 40.51 37.86 39.83 36.19 30.10 36.29 40.04 44.50 43.84 48.80 45.50 40.55 39.27 37.98 38.48 41.54
53.87 53.90 53.41 52.71 51.92 51.73 44.01 38.22 33.71 38.45 39.29 38.13 33.33 32.85 34.56 35.71 42.08 39.33 38.99 36.80 35.53 32.69 31.35 36.17 34.35 35.12 39.48 41.38 40.70 43.21 42.61 31.92 31.74 30.18 37.08 42.01 41.06 45.27 46.45 45.13 40.53 40.04 41.71 42.88
53.52 53.70 53.37 52.72 51.89 51.59 43.91 37.65 33.58 37.21 32.26 34.65 35.16 33.74 35.56 36.06 35.48 39.28 39.10 34.75 36.17 31.27 26.11 32.10 33.90 36.15 37.38 39.36 42.04 40.21 37.60 28.33 32.79 36.63 40.37 42.77 43.61 45.92 47.93 43.95 44.51 42.45 43.79 43.57
53.50 53.62 53.49 53.16 52.17 51.23 41.93 36.47 34.46 36.81 37.12 36.81 34.99 35.41 35.08 36.34 37.10 38.00 35.06 34.01 36.27 33.19 28.24 32.72 31.17 35.12 35.29 35.16 38.35 36.32 37.45 28.57 32.85 33.74 44.85 46.07 45.42 48.23 48.48 47.09 47.00 44.32 43.96 44.80
53.81 53.42 53.53 53.16 52.32 50.63 43.28 41.15 40.73 39.96 37.98 35.40 33.64 34.51 35.74 35.67 38.97 39.95 40.85 38.57 35.52 33.40 35.61 38.90 39.23 40.08 39.51 38.34 36.43 35.06 33.91 30.02 29.19 30.77 41.85 46.24 41.92 45.46 47.76 47.53 47.49 47.71 42.60 46.42
52.97 52.53 52.89 53.16 52.88 51.76 48.47 46.44 44.47 38.15 33.88 36.44 36.47 37.29 37.71 37.51 38.55 37.04 40.15 39.56 35.07 39.30 41.58 40.87 39.58 39.62 39.19 39.08 38.62 39.09 33.91 29.88 29.94 31.36 38.25 36.06 43.01 48.40 49.25 50.27 50.06 50.08 52.07 53.33
52.49 52.71 53.06 53.27 53.55 52.91 49.40 48.58 44.87 39.01 33.44 36.83 37.43 37.89 38.66 38.10 39.04 39.01 39.91 40.71 40.88 40.78 37.29 31.30 30.08 31.95 34.21 36.45 38.64 38.30 38.88 33.23 28.63 31.38 35.46 40.91 43.13 44.51 45.53 44.67 45.80 49.13 49.68 57.23
52.71 52.98 53.37 53.57 53.70 53.23 51.00 49.60 48.27 41.33 35.81 35.24 39.62 38.18 38.22 36.32 37.38 38.01 39.35 42.56 42.74 42.73 33.43 30.52 27.85 27.39 32.50 34.14 37.38 39.49 38.81 38.81 31.09 32.06 33.39 34.37 40.45 46.49 52.65 51.69 40.67 49.17 51.68 55.87
52.87 53.27 53.68 53.72 53.90 53.33 51.23 49.43 48.83 43.50 36.55 39.34 40.43 37.65 37.12 39.41 38.56 36.61 38.91 38.88 37.93 40.20 35.41 31.76 31.84 31.03 36.98 32.09 33.61 32.76 33.94 35.35 34.24 35.48 36.93 39.32 44.77 47.15 51.79 40.27 42.16 49.83 50.36 51.97
52.91 53.24 53.39 53.76 53.84 53.86 52.11 49.59 49.90 45.04 39.57 40.99 43.62 43.71 40.97 41.24 40.20 36.20 39.57 38.71 36.19 34.80 32.95 32.81 32.48 32.48 34.27 33.95 36.29 35.19 34.82 33.92 33.03 36.97 35.19 34.69 47.33 46.48 40.01 44.58 48.40 48.69 50.58 51.44
52.75 53.16 53.45 53.78 53.96 53.94 53.15 47.77 51.02 50.28 43.77 42.66 46.67 46.50 47.38 46.00 45.04 41.69 41.29 36.46 34.53 38.80 32.68 34.41 34.80 32.75 35.32 33.55 31.07 39.59 33.38 37.00 35.50 37.06 38.12 44.63 48.40 46.28 47.97 48.21 47.65 49.51 48.99 50.04
52.90 53.20 53.72 54.02 54.09 53.88 53.04 50.03 49.92 47.71 43.21 42.65 42.28 43.62 48.40 49.68 48.10 48.82 40.47 41.47 41.60 37.13 38.43 35.86 36.04 33.03 35.87 30.92 33.17 35.17 38.36 41.24 37.73 36.75 41.24 41.56 46.65 47.76 47.26 47.68 47.95 51.01 51.01 48.38
53.02 53.49 53.94 54.09 53.86 53.53 53.55 49.87 49.39 47.15 43.32 38.04 40.38 49.20 46.84 50.32 49.65 48.48 47.89 43.45 44.30 41.43 37.93 33.57 33.38 31.00 35.71 32.76 34.15 33.17 36.98 38.35 35.82 35.05 37.74 41.77 45.13 45.17 45.52 45.93 48.39 50.62 51.70 51.08
53.21 53.76 53.88 53.51 53.41 53.21 52.30 50.14 48.43 48.15 43.77 38.76 39.91 42.70 46.14 48.49 48.31 46.94 46.84 43.34 41.53 39.34 36.26 37.06 34.97 37.09 36.20 33.84 33.34 33.10 39.14 37.02 34.32 32.55 37.82 36.88 38.81 44.00 45.45 44.94 45.75 50.12 49.89 49.64
53.52 53.60 53.56 53.76 53.37 53.29 51.33 46.07 48.88 48.96 45.68 39.76 36.33 42.71 42.81 44.55 44.93 44.49 43.18 43.21 41.37 43.06 39.88 37.91 39.11 40.91 36.15 31.89 28.45 35.23 40.39 41.22 41.21 39.36 42.23 41.69 41.84 43.34 44.73 44.44 46.79 50.15 49.75 49.90
53.59 53.36 53.18 52.94 52.94 48.29 45.26 42.92 47.28 50.00 47.01 38.96 36.21 38.62 42.38 43.34 41.86 42.02 41.34 42.50 41.19 40.45 37.91 36.10 36.39 36.64 38.19 35.04 31.99 37.90 41.23 43.38 44.90 46.07 44.21 42.23 43.07 41.46 44.68 46.19 49.13 50.09 50.50 51.67
52.99 52.94 53.12 51.61 51.17 49.28 46.33 46.60 50.15 48.38 41.85 41.27 37.12 38.12 39.83 44.96 41.04 39.57 42.66 39.14 39.53 38.48 37.58 37.89 36.14 37.31 34.71 31.48 37.93 40.64 42.14 43.64 44.68 46.09 46.37 44.56 44.92 45.62 44.41 45.00 46.26 48.24 49.46 50.29
52.68 52.88 53.18 50.15 47.19 45.91 45.33 51.87 50.68 47.08 43.53 40.01 40.00 37.13 37.94 42.91 39.57 39.07 39.73 39.24 37.10 39.96 36.57 35.66 35.42 32.78 32.23 37.67 39.21 40.70 41.85 41.53 43.30 45.74 46.08 44.04 44.32 44.94 43.90 43.34 44.33 44.86 46.01 48.50
52.58 49.44 48.02 47.10 48.18 53.02 51.34 47.03 44.46 44.14 43.10 40.08 39.49 44.17 38.99 41.93 41.82 41.58 40.11 40.63 38.47 35.12 38.15 37.76 33.50 32.42 41.09 43.52 44.56 43.94 43.29 43.53 43.77 42.33 41.75 43.86 43.08 42.59 42.80 43.65 44.73 45.70 47.14 49.18
47.32 47.14 47.44 48.06 53.41 47.12 47.73 43.21 40.62 40.94 37.32 40.14 40.58 41.37 40.55 44.58 41.15 40.92 42.12 38.63 39.17 33.70 32.90 33.77 32.96 33.14 40.06 43.63 44.46 45.88 44.80 44.51 44.03 43.98 44.51 45.07 46.44 48.40 44.88 46.77 48.81 48.24 48.20 49.04
48.55 46.83 51.05 48.52 45.69 45.36 41.45 38.68 41.03 39.51 38.81 43.99 44.84 44.11 44.12 43.56 42.87 40.85 42.10 39.50 37.91 30.01 37.70 34.32 32.17 37.58 41.86 42.82 43.26 45.86 46.55 45.03 44.08 44.17 43.67 44.19 44.34 45.97 47.10 46.55 46.19 45.91 46.71 47.03
50.46 49.55 46.19 44.25 43.00 36.18 37.19 31.89 34.46 38.29 41.60 46.08 45.43 43.52 45.35 43.73 42.24 40.54 42.25 37.46 33.06 38.66 32.26 31.71 35.49 39.36 40.62 41.38 43.15 44.01 47.22 46.25 44.89 43.82 44.06 44.13 43.60 44.03 43.95 44.10 45.51 45.75 45.32 45.73
49.02 46.92 35.21 39.15 38.09 39.78 38.76 37.98 38.43 42.22 42.21 43.05 44.70 44.95 44.09 45.20 42.76 39.48 36.88 37.56 36.84 32.13 30.87 32.93 38.00 37.62 39.76 40.67 41.74 41.38 44.03 45.45 45.02 43.97 43.93 43.29 43.07 42.93 43.45 44.06 44.55 44.50 43.49 44.16
48.38 44.11 35.09 38.59 41.69 41.61 42.29 42.89 41.90 43.36 44.16 43.43 42.65 42.23 41.95 38.92 38.24 37.75 35.48 33.93 29.03 29.14 31.04 35.48 38.92 39.70 39.75 39.73 40.09 40.37 41.02 44.69 44.28 44.65 44.08 43.76 43.47 42.36 42.63 43.58 43.45 43.50 43.40 43.38
48.44 44.58 40.87 41.61 40.21 40.22 41.20 41.61 40.88 43.71 44.08 43.17 42.32 39.33 37.48 37.95 36.92 34.53 32.17 31.21 29.25 36.75 38.89 39.63 41.65 40.96 40.21 40.09 39.04 39.74 41.39 41.89 45.39 44.75 44.46 44.27 43.91 43.23 43.27 44.45 44.12 43.01 42.14 41.82
47.91 45.66 44.84 42.62 41.64 40.98 41.72 41.99 42.41 44.18 42.24 38.21 38.76 35.27 34.46 37.81 33.97 32.56 35.87 32.48 34.57 37.39 39.12 40.45 40.58 40.66 40.61 40.61 39.29 39.62 39.95 40.79 40.29 44.50 44.59 44.74 45.27 45.16 44.20 42.73 43.67 44.15 43.98 44.15
MSLP
1023.95 1023.33 1022.78 1022.25 1021.66 1020.83 1019.54 1019.63 1017.83 1013.68 1012.60 1013.76 1014.62 1015.12 1014.51 1013.78 1013.38 1013.14 1013.10 1012.94 1013.11 1013.24 1013.40 1013.16 1012.97 1012.97 1013.33 1012.90 1012.64 1012.38 1011.04 1008.51 1003.70 998.57 995.91 995.48 995.72 996.24 997.31 998.38 999.85 999.96 999.17 996.14
1023.82 1023.27 1022.66 1022.26 1021.72 1021.49 1021.44 1020.75 1018.38 1014.54 1014.18 1016.11 1016.62 1015.90 1014.97 1013.96 1013.62 1013.42 1013.23 1013.12 1013.01 1013.18 1013.39 1013.51 1013.32 1013.39 1012.96 1012.77 1012.93 1013.56 1012.62 1009.73 1006.56 1000.50 997.91 996.24 995.91 995.71 995.79 996.86 997.79 998.49 998.70 995.44
1023.65 1023.12 1022.65 1022.21 1021.80 1021.38 1021.45 1021.11 1019.80 1017.79 1017.16 1017.78 1017.97 1017.48 1015.84 1014.80 1013.58 1013.25 1013.01 1012.91 1012.89 1013.22 1013.25 1013.12 1012.84 1012.91 1012.89 1012.97 1013.00 1013.62 1013.59 1011.42 1008.53 1004.43 1000.28 998.47 996.22 995.30 995.28 995.56 996.53 997.08 996.52 995.47
1023.23 1022.87 1022.45 1022.05 1021.64 1021.24 1021.59 1021.28 1020.88 1020.43 1019.42 1018.56 1018.71 1018.30 1016.65 1015.38 1014.40 1013.75 1013.21 1013.12 1013.06 1013.12 1013.09 1012.71 1012.20 1012.11 1011.88 1012.27 1012.80 1013.37 1013.63 1011.07 1008.37 1005.05 1001.86 999.46 997.31 995.11 994.44 994.79 994.97 995.60 995.66 995.48
1022.90 1022.57 1022.18 1021.81 1021.38 1021.06 1021.29 1021.46 1021.34 1021.02 1020.42 1019.85 1019.10 1017.84 1016.65 1015.79 1015.19 1014.77 1013.93 1013.75 1013.13 1012.74 1012.76 1012.51 1011.99 1011.69 1011.41 1011.75 1012.18 1012.84 1012.39 1010.68 1008.27 1004.10 999.80 998.10 996.58 994.76 994.15 994.20 994.31 995.00 995.12 994.88
1022.50 1022.09 1021.70 1021.45 1021.20 1021.09 1021.13 1020.99 1020.99 1021.19 1020.45 1020.05 1019.58 1018.10 1017.35 1016.54 1015.60 1014.89 1014.12 1013.62 1013.00 1012.40 1011.77 1011.45 1011.12 1010.82 1010.48 1010.65 1010.85 1011.19 1011.35 1010.21 1008.51 1004.40 1000.28 997.85 997.04 996.43 994.54 994.30 994.53 995.06 995.84 994.79
1021.98 1021.57 1021.26 1020.98 1020.71 1020.80 1020.95 1020.72 1020.81 1020.86 1020.22 1019.85 1019.21 1018.45 1017.73 1016.59 1015.98 1015.28 1014.20 1013.56 1013.23 1012.21 1011.14 1010.61 1009.86 1009.06 1008.73 1009.04 1009.70 1009.97 1009.99 1009.59 1008.24 1004.55 1001.20 998.89 998.55 997.33 996.72 996.29 997.15 997.26 996.56 995.61
1021.41 1020.96 1020.62 1020.29 1020.15 1020.03 1020.34 1020.25 1020.41 1020.51 1020.09 1019.49 1018.76 1018.12 1017.30 1016.85 1016.01 1015.06 1014.24 1013.52 1013.21 1012.20 1011.41 1011.08 1010.32 1009.67 1008.97 1008.19 1008.34 1008.75 1009.26 1009.06 1007.67 1005.21 1002.36 999.34 998.51 999.10 999.15 998.92 999.85 999.91 998.42 996.11
1020.78 1020.34 1019.92 1019.66 1019.45 1019.40 1019.51 1019.38 1019.64 1020.06 1020.01 1019.09 1018.48 1017.88 1017.43 1016.77 1015.89 1015.30 1014.28 1013.35 1012.46 1012.17 1012.12 1011.73 1011.04 1010.47 1009.41 1008.59 1007.88 1008.36 1008.87 1007.81 1007.98 1005.62 1003.68 1002.31 1003.18 1000.52 998.22 998.20 1000.81 1000.98 999.93 998.67
1020.16 1019.73 1019.40 1019.04 1018.83 1018.75 1018.95 1018.84 1018.89 1019.40 1019.48 1018.50 1018.18 1017.72 1017.42 1016.96 1016.41 1015.96 1015.01 1014.62 1013.39 1012.93 1013.36 1012.73 1011.89 1011.09 1010.19 1009.80 1009.54 1009.51 1009.25 1007.41 1006.82 1005.85 1004.65 1004.61 1004.29 1002.14 999.28 1001.30 1004.55 1003.02 1001.87 1000.97
1019.59 1019.22 1018.91 1018.53 1018.35 1018.22 1018.47 1018.27 1018.32 1018.73 1018.73 1017.98 1017.61 1017.22 1017.02 1016.42 1016.27 1016.04 1015.53 1014.84 1014.17 1014.00 1013.96 1013.71 1013.32 1012.14 1011.15 1010.54 1010.66 1010.15 1009.49 1009.03 1008.40 1006.97 1006.83 1007.50 1007.03 1005.34 1005.37 1006.74 1004.88 1003.78 1003.09 1002.55
1019.08 1018.76 1018.40 1018.10 1017.93 1017.91 1018.02 1018.07 1017.82 1018.01 1018.38 1017.93 1017.39 1016.69 1016.25 1016.20 1016.19 1016.25 1015.67 1015.54 1015.14 1014.70 1014.90 1014.60 1013.90 1012.82 1012.10 1011.60 1011.20 1010.92 1010.84 1011.00 1010.08 1009.63 1009.37 1009.02 1008.61 1008.37 1007.50 1006.55 1005.74 1004.61 1003.84 1003.35
1018.61 1018.26 1017.94 1017.73 1017.58 1017.51 1017.62 1017.71 1017.87 1018.16 1018.20 1017.74 1017.14 1016.18 1015.63 1015.35 1015.30 1015.26 1015.68 1015.23 1014.93 1014.74 1015.02 1014.90 1014.31 1013.81 1012.96 1012.61 1012.46 1012.41 1011.82 1010.78 1010.77 1010.09 1009.97 1009.69 1009.25 1008.74 1007.98 1007.69 1006.77 1005.64 1004.53 1003.79
1018.15 1017.83 1017.59 1017.37 1017.23 1017.17 1017.26 1017.58 1017.84 1018.10 1018.13 1017.97 1016.87 1015.75 1015.68 1015.18 1014.64 1015.14 1015.01 1014.68 1014.46 1014.65 1014.76 1015.16 1014.99 1014.72 1014.51 1014.47 1013.74 1012.65 1012.62 1011.93 1011.85 1010.98 1010.64 1010.40 1009.62 1009.58 1009.30 1007.86 1007.18 1006.27 1005.23 1004.43
1017.82 1017.52 1017.28 1017.08 1017.06 1017.13 1017.25 1017.58 1017.75 1017.80 1018.33 1017.98 1017.04 1016.20 1015.78 1015.31 1015.03 1015.07 1014.90 1014.75 1014.84 1015.40 1015.81 1016.07 1016.28 1015.93 1015.65 1015.07 1014.24 1013.70 1013.52 1013.61 1013.05 1012.49 1012.18 1013.02 1010.74 1010.32 1010.14 1008.96 1008.29 1006.94 1005.62 1004.60
1017.60 1017.28 1017.07 1016.92 1017.06 1017.24 1017.41 1017.65 1017.79 1017.67 1017.92 1018.08 1017.59 1016.66 1016.16 1015.68 1015.50 1015.46 1015.67 1015.78 1015.86 1015.87 1016.16 1016.50 1016.50 1016.34 1016.28 1015.99 1015.68 1014.63 1014.42 1013.40 1012.72 1011.71 1011.66 1011.81 1010.98 1010.47 1010.26 1010.16 1008.61 1006.92 1006.59 1006.11
1017.43 1017.24 1017.11 1016.99 1016.99 1017.43 1017.67 1017.75 1017.49 1017.59 1017.95 1018.16 1017.84 1016.89 1016.15 1016.03 1015.85 1015.98 1016.10 1016.33 1016.65 1016.82 1017.37 1017.78 1017.70 1017.22 1016.65 1015.89 1015.35 1014.41 1013.40 1012.63 1011.83 1011.19 1010.81 1010.58 1010.21 1009.66 1009.02 1009.04 1008.18 1007.38 1007.19 1006.58
1017.35 1017.28 1017.20 1017.20 1017.10 1017.43 1017.52 1017.76 1017.47 1017.79 1018.16 1018.22 1018.01 1017.39 1016.62 1016.37 1016.41 1016.54 1016.70 1016.84 1017.06 1017.64 1017.93 1017.97 1017.97 1017.74 1017.58 1016.97 1016.55 1015.12 1013.74 1012.35 1011.07 1010.36 1009.74 1009.23 1008.66 1008.20 1008.32 1008.57 1008.67 1007.93 1008.46 1007.81
1017.16 1017.24 1017.27 1017.47 1017.64 1017.36 1017.51 1017.41 1017.62 1017.85 1018.53 1018.23 1017.89 1017.68 1017.13 1016.68 1016.96 1017.22 1017.30 1017.36 1017.66 1018.30 1018.50 1018.81 1018.76 1018.18 1017.56 1016.81 1016.05 1014.87 1013.69 1012.58 1011.32 1010.15 1009.24 1008.57 1007.89 1007.51 1007.98 1008.26 1008.40 1008.45 1007.82 1007.34
1017.02 1017.25 1017.49 1017.29 1017.11 1016.97 1017.38 1017.81 1017.85 1017.82 1017.89 1017.73 1017.41 1016.81 1016.67 1016.73 1016.87 1017.13 1017.49 1017.65 1017.89 1018.16 1018.69 1018.79 1018.69 1018.43 1017.62 1016.48 1015.92 1015.35 1014.38 1013.21 1011.91 1010.89 1009.94 1009.04 1008.15 1007.94 1007.91 1007.59 1007.71 1008.01 1007.88 1007.62
1017.27 1017.23 1017.26 1017.45 1017.27 1017.40 1017.16 1017.12 1017.22 1016.96 1016.92 1016.70 1015.92 1015.99 1015.95 1016.01 1016.22 1016.40 1016.84 1017.22 1017.64 1018.17 1018.72 1018.80 1018.99 1018.56 1017.44 1016.19 1015.76 1015.38 1014.93 1014.24 1013.27 1012.40 1011.34 1009.95 1008.62 1007.60 1007.73 1007.76 1007.79 1007.70 1007.82 1007.94
1016.93 1016.80 1016.66 1017.15 1017.29 1016.84 1016.76 1016.55 1016.07 1015.83 1015.45 1014.88 1014.49 1014.40 1015.06 1015.43 1015.61 1016.02 1016.53 1016.74 1017.42 1017.82 1018.17 1018.74 1019.14 1018.65 1017.43 1016.49 1015.78 1015.22 1015.08 1014.73 1014.14 1013.25 1012.31 1011.19 1010.10 1009.16 1008.69 1008.61 1008.52 1008.48 1008.11 1007.90
1016.39 1016.60 1016.38 1016.43 1016.04 1016.13 1016.37 1016.72 1016.10 1015.48 1014.23 1013.32 1013.31 1013.73 1014.14 1014.83 1015.08 1015.46 1015.84 1016.11 1016.74 1016.82 1018.45 1019.32 1019.06 1018.28 1017.43 1016.53 1015.68 1015.18 1014.99 1014.81 1014.44 1013.79 1013.01 1012.25 1011.71 1011.12 1010.61 1010.35 1010.07 1009.69 1009.19 1008.94
1016.24 1016.05 1015.84 1015.86 1015.66 1015.60 1015.59 1015.44 1014.96 1014.14 1013.38 1012.64 1012.40 1012.66 1013.12 1013.39 1014.48 1014.63 1015.55 1016.13 1016.72 1018.17 1018.94 1019.12 1018.46 1017.90 1017.31 1016.42 1015.70 1015.20 1015.02 1014.92 1014.72 1014.47 1013.98 1013.49 1013.11 1012.77 1012.31 1011.89 1011.61 1011.13 1010.75 1010.56
1015.53 1014.93 1015.31 1015.25 1015.05 1014.67 1014.38 1014.09 1013.92 1013.13 1012.32 1012.12 1012.14 1012.43 1012.95 1013.76 1014.53 1015.55 1016.21 1016.89 1018.05 1018.51 1018.86 1018.46 1017.86 1017.35 1016.86 1016.21 1015.70 1015.15 1014.72 1014.77 1014.76 1014.59 1014.42 1014.17 1013.80 1013.47 1013.32 1013.30 1013.08 1012.59 1012.17 1011.80
1014.39 1013.93 1014.40 1014.66 1014.79 1014.73 1014.47 1014.11 1013.87 1012.85 1012.48 1012.00 1012.48 1013.51 1014.23 1014.74 1015.53 1016.53 1017.35 1017.98 1018.40 1018.48 1017.81 1017.28 1016.80 1016.54 1016.24 1015.91 1015.47 1015.02 1014.43 1014.30 1014.29 1014.34 1014.33 1014.24 1014.11 1013.81 1013.69 1013.68 1013.53 1013.40 1013.26 1013.21
1013.65 1013.59 1013.63 1014.06 1014.25 1014.43 1014.16 1013.87 1013.51 1012.80 1013.06 1013.47 1013.65 1014.75 1015.21 1015.40 1016.23 1016.95 1017.38 1017.77 1017.87 1017.53 1016.92 1016.53 1016.21 1016.04 1015.87 1015.55 1015.12 1014.68 1014.28 1014.01 1013.92 1013.92 1013.99 1013.86 1013.75 1013.67 1013.59 1013.40 1013.33 1013.29 1013.28 1013.29
Wind_Speed
18 19 20 19 20 21 8 4 5 5 10 5 2 2 5 4 4 7 3 3 3 3 3 5 5 6 5 13 15 14 14 8 7 15 7 2 20 9 11 9 11 4 5 12
17 18 18 17 17 14 6 5 5 5 6 5 5 7 7 3 1 2 3 3 3 3 4 3 3 3 9 13 9 8 10 5 8 7 6 6 6 15 13 6 6 12 11 13
17 16 16 15 14 14 3 3 5 6 5 2 2 6 6 9 7 4 4 6 3 3 2 6 5 2 5 10 11 8 10 6 8 6 5 9 4 9 13 17 10 10 15 10
17 16 15 14 13 13 3 1 3 1 5 5 11 3 6 10 7 4 5 4 3 4 3 7 3 9 6 9 9 5 4 8 7 19 24 22 20 6 19 14 14 15 12 7
17 16 14 12 12 12 2 1 2 4 5 7 7 6 4 9 15 9 6 7 13 5 5 6 8 12 5 5 6 3 5 6 9 14 13 16 11 7 7 18 16 6 8 10
17 16 14 11 9 3 2 2 0 2 2 3 4 3 10 18 14 9 15 12 7 6 10 8 11 12 11 11 5 5 4 3 6 8 9 8 2 10 7 14 8 13 6 11
19 17 15 12 9 5 2 3 1 2 5 5 4 11 17 14 13 11 14 7 3 7 8 9 9 10 12 10 9 10 6 3 4 7 9 7 8 20 14 21 20 21 14 10
20 17 15 14 11 10 3 2 3 3 4 5 8 11 7 13 13 10 13 7 5 7 5 3 5 4 3 9 11 10 10 4 5 2 4 1 14 19 15 4 14 20 18 10
19 17 16 14 12 11 4 4 3 2 1 4 8 6 10 6 3 5 5 7 6 5 3 2 1 3 3 4 7 12 8 10 3 5 2 6 11 24 21 9 16 21 20 18
19 17 16 15 13 10 3 2 4 2 2 4 4 3 3 4 2 3 5 10 7 4 5 4 2 2 5 4 3 1 5 8 4 1 5 6 21 30 14 13 3 12 14 16
17 16 14 13 12 11 3 2 7 4 3 3 5 4 3 6 3 2 4 5 5 4 5 3 3 3 4 3 3 2 4 4 5 5 5 5 20 14 16 10 6 11 13 10
16 15 14 13 11 8 2 2 2 3 1 3 2 8 13 10 8 3 2 2 3 3 4 3 4 2 3 5 3 3 5 2 2 4 3 4 4 6 12 16 13 5 6 7
15 14 13 11 8 4 4 1 1 2 1 3 3 4 7 4 9 9 1 3 3 5 5 2 3 3 5 6 4 4 5 2 3 3 7 9 8 9 15 16 17 15 12 5
14 13 12 9 5 2 4 2 2 1 1 1 4 1 4 10 7 7 9 4 3 1 2 2 3 4 5 3 3 2 6 6 9 4 5 5 7 10 13 20 19 16 12 12
13 12 10 6 1 3 2 2 3 1 1 1 4 7 4 8 6 10 9 5 4 2 3 2 2 2 4 3 3 2 6 7 4 5 8 7 17 8 13 16 19 16 14 13
11 10 9 2 4 5 1 0 1 2 1 2 3 4 4 5 6 7 7 5 4 2 3 2 2 5 4 3 1 4 17 18 16 11 9 12 17 20 15 15 17 12 15 7
8 8 6 4 5 3 2 2 2 4 2 2 3 5 2 3 3 3 3 4 3 2 2 3 2 2 4 3 4 18 19 17 14 12 11 12 15 10 7 13 7 6 14 10
6 4 2 9 11 8 2 1 6 4 3 2 1 4 4 5 4 3 4 3 3 5 3 2 3 2 2 1 11 16 20 17 9 14 9 12 15 16 10 6 8 4 5 9
2 2 2 1 1 1 2 8 5 1 2 2 1 1 3 2 2 2 3 3 3 1 3 3 2 3 5 11 16 19 19 18 18 18 12 14 11 8 11 10 11 7 8 7
2 3 1 2 1 15 11 2 0 0 1 1 3 2 3 3 2 1 2 1 2 3 3 2 3 3 8 6 6 10 17 19 21 14 17 12 7 5 9 9 6 6 4 2
1 1 1 1 9 1 2 1 2 1 2 3 4 5 2 2 3 2 2 2 1 2 3 3 3 5 10 8 6 6 11 14 15 16 17 17 14 5 2 2 5 6 6 5
2 2 2 3 2 1 1 3 5 1 4 3 4 3 4 2 3 2 2 1 1 2 4 4 3 4 8 8 7 4 5 10 13 14 18 21 23 20 16 14 12 11 10 9
1 0 2 3 2 6 4 4 6 4 4 3 2 2 5 2 2 2 3 3 1 4 5 1 3 5 7 8 7 6 1 5 9 13 15 18 20 22 22 17 15 14 15 13
2 3 6 2 5 4 2 3 4 7 4 7 3 3 4 3 3 0 5 2 5 4 3 2 3 4 7 7 6 5 3 3 5 8 10 12 15 16 17 17 16 14 16 14
3 3 0 1 4 2 3 2 4 5 4 5 3 4 4 4 6 4 4 4 3 2 3 3 3 5 6 7 6 7 6 4 3 2 4 6 8 10 12 12 13 14 14 16
2 1 2 2 4 5 4 3 4 4 5 3 5 4 5 5 4 4 2 3 1 3 5 4 4 2 4 6 7 7 7 2 6 5 4 4 2 3 4 4 5 7 11 11
3 2 2 4 3 4 3 1 4 3 4 4 4 5 2 2 3 1 5 3 4 4 3 3 3 3 4 5 6 7 7 5 4 6 5 5 5 5 4 3 4 4 5 3
Wind_Direction
329 332 337 339 336 340 13 352 339 297 6 30 21 25 320 353 6 21 345 265 319 281 28 291 262 306 234 313 353 335 317 293 277 233 243 269 216 195 185 198 212 193 169 259
329 330 332 335 334 360 332 317 273 313 50 57 333 318 324 353 57 271 278 274 230 266 159 304 340 277 307 320 8 352 339 346 315 311 30 285 215 210 196 142 131 205 209 250
328 326 328 331 331 339 30 332 335 331 10 38 45 357 292 322 322 253 269 233 302 332 277 200 231 199 274 326 313 305 327 247 238 275 278 340 219 249 194 188 198 197 221 262
325 324 328 328 325 328 84 21 278 203 319 331 325 284 260 321 344 332 303 330 246 243 254 298 200 287 291 353 25 12 298 264 257 265 272 269 256 250 204 197 191 199 215 220
322 322 322 318 318 337 89 272 18 356 284 296 302 298 298 349 334 337 307 334 307 301 221 201 276 293 291 247 178 314 256 276 310 289 241 215 231 242 271 207 200 179 157 229
320 321 314 314 318 13 282 291 272 146 250 281 310 276 339 313 317 300 312 307 306 288 285 269 269 261 254 244 180 197 223 288 337 271 326 151 118 352 309 203 187 196 139 232
319 319 316 308 287 244 226 235 140 198 266 241 252 288 302 314 324 302 303 321 348 274 284 301 285 274 267 231 240 200 231 230 237 269 306 146 126 37 26 63 38 21 347 329
318 316 309 301 293 265 211 216 198 185 257 259 270 286 301 311 304 297 306 331 256 290 284 302 302 2 274 219 229 225 221 239 268 285 279 201 19 2 339 8 44 10 339 138
315 312 305 300 287 276 243 232 155 163 243 235 256 300 292 288 314 310 285 325 284 8 4 319 239 323 282 16 356 164 246 261 202 319 357 49 347 335 326 142 37 354 2 24
313 310 311 307 296 281 240 256 159 139 213 254 218 246 304 273 284 274 308 334 324 24 12 323 326 262 306 38 64 91 280 299 196 182 64 43 359 341 26 57 23 351 358 29
311 314 315 308 303 294 268 257 182 175 209 271 235 266 270 267 190 300 321 321 349 350 17 349 336 306 352 58 39 18 37 345 360 347 65 61 0 3 51 343 26 22 10 16
316 321 315 311 308 298 275 255 192 197 204 279 259 263 263 267 259 265 286 219 268 308 23 352 302 298 312 330 54 4 56 107 355 25 75 281 35 352 358 358 7 346 8 353
318 319 322 330 328 307 210 259 119 103 303 278 323 325 312 292 214 198 253 290 8 327 178 268 287 5 356 5 27 22 328 37 46 13 342 2 61 14 349 353 338 356 350 345
322 329 333 342 345 283 182 168 168 107 120 2 291 278 320 326 41 174 218 231 318 63 59 37 7 10 31 290 313 14 349 26 328 318 5 17 84 36 350 332 332 341 1 14
335 336 338 343 21 155 136 106 201 169 139 289 291 316 337 344 37 39 26 46 67 42 31 16 1 268 354 330 336 42 33 353 346 270 310 300 273 305 333 322 318 334 345 1
345 342 342 13 135 151 167 254 243 209 126 74 329 308 316 342 27 40 33 24 32 30 13 32 33 356 6 24 283 304 340 316 303 285 263 240 269 282 272 266 280 332 331 325
3 351 10 359 169 128 168 194 201 147 78 70 340 333 276 350 357 12 18 43 66 46 80 52 330 326 357 21 336 325 324 314 303 280 269 271 245 247 246 215 252 342 320 317
355 345 32 46 95 100 47 312 118 120 94 94 53 285 351 6 351 16 358 17 24 31 16 17 17 327 7 47 343 340 344 338 319 311 286 267 269 256 238 283 297 270 226 298
302 271 324 41 244 260 194 164 142 118 127 68 60 168 281 25 0 35 19 18 32 357 42 23 7 332 33 329 10 359 350 354 347 358 341 331 324 229 228 229 238 250 269 214
176 72 84 267 233 119 121 74 266 228 200 228 213 144 259 142 166 161 106 19 18 9 43 130 37 358 292 343 345 355 355 357 357 360 3 356 321 257 228 237 218 212 226 119
58 219 247 34 160 13 194 271 223 163 270 193 237 180 214 196 157 164 200 135 111 52 289 72 21 353 337 333 352 2 349 360 4 13 8 13 10 16 166 56 63 65 64 38
191 233 165 117 201 250 304 320 322 25 244 197 204 218 182 162 110 116 162 158 108 75 146 65 2 282 310 320 310 8 344 352 3 24 27 26 32 28 43 49 44 48 51 36
124 149 248 95 263 20 69 325 311 304 285 271 301 342 167 134 136 150 151 180 67 106 52 32 242 286 301 315 315 330 49 4 8 14 33 37 34 34 35 34 37 39 43 37
145 179 342 118 344 8 264 219 230 252 256 296 249 247 156 171 126 252 66 81 58 65 19 272 256 275 286 308 315 337 350 58 36 32 33 45 52 46 37 33 28 32 35 29
238 129 109 12 243 256 264 304 347 292 279 329 1 26 62 15 57 48 33 43 22 180 228 236 257 274 286 314 319 325 335 154 119 85 64 59 66 73 75 63 48 37 32 34
237 161 61 317 45 318 342 320 303 300 317 1 45 47 42 29 73 58 68 62 245 228 232 226 224 254 290 298 313 321 318 19 176 180 184 171 154 116 114 99 94 88 81 63
277 253 95 147 177 215 246 248 283 305 35 5 72 55 291 26 62 86 168 191 224 246 294 233 227 216 270 283 319 331 336 345 26 179 207 219 205 202 207 188 198 219 200 167